Regional Weather Roundup
Issued by NWS

Home | Current Version | Previous Version | Graphics & Text | Print | Product List | Glossary On
Versions: 1 2 3 4 5 6 7 8 9 10 11 12 13 14 15 16 17 18 19 20 21 22 23 24 25 26 27 28
000
ASUS45 KCYS 221910
RWRWY

WYOMING REGIONAL WEATHER ROUNDUP
NATIONAL WEATHER SERVICE CHEYENNE WY
100 PM MDT SUN APR 22 2018

NOTE:  "FAIR" INDICATES FEW OR NO CLOUDS BELOW 12,000 FEET
WITH NO SIGNIFICANT WEATHER AND/OR OBSTRUCTIONS TO VISIBILITY.

WYZ001-222000-
YELLOWSTONE NATIONAL PARK

CITY           SKY/WX    TMP DP  RH WIND       PRES   REMARKS
LK YELLOWSTONE   N/A     51  21  30 VRB3      30.19F
W YELLOWSTONE  NOT AVBL

$$
WYZ002>013-054>058-071-098>099-222000-
NORTHERN WYOMING

CITY           SKY/WX    TMP DP  RH WIND       PRES   REMARKS
JACKSON        FAIR      59  27  29 VRB5      30.14F
CODY           FAIR      60  28  29 CALM      30.09F
GREYBULL         N/A     62  37  39 VRB3      30.06F
WORLAND        FAIR      64  33  31 VRB3      30.07F
SHERIDAN       FAIR      61  30  31 E12       30.10F
BUFFALO        FAIR      60  31  33 SE10      30.12F
GILLETTE       FAIR      61  41  47 VRB6      30.11F
HULETT         FAIR      61  36  39 CALM      30.13F
NEWCASTLE      FAIR      61  32  33 SE10      30.13F

$$
WYZ014>020-022>026-101>103-222000-
CENTRAL WYOMING

CITY           SKY/WX    TMP DP  RH WIND       PRES   REMARKS
BIG PINEY      FAIR      61  24  24 W8G17     30.17F
PINEDALE       FAIR      59  25  27 NW14G21   30.18F
DUBOIS         FAIR      59  21  23 N9G22     30.14F
LANDER         FAIR      64  31  28 E3        30.07F
RIVERTON       FAIR      64  29  26 SE6       30.09F
CASPER         FAIR      59  38  45 CALM      30.13F
DOUGLAS        FAIR      62  39  42 SE6       30.14F

$$
WYZ021-027>030-104>119-222000-
SOUTHERN WYOMING

CITY           SKY/WX    TMP DP  RH WIND       PRES   REMARKS
EVANSTON       FAIR      61  22  22 VRB5      30.18F
KEMMERER       FAIR      59  23  25 CALM      30.19F
FORT BRIDGER   CLEAR     63  23  22 N6        30.20F
ROCK SPRINGS   FAIR      61  12  14 VRB5      30.17F
DIXON          FAIR      61  31  32 S7        30.20F
RAWLINS          N/A    N/A N/A N/A MISG      30.16F
SARATOGA       FAIR      61  27  27 W5        30.19F
LARAMIE        FAIR      56  27  32 N7        30.19F
CHEYENNE       FAIR      58  33  39 NE7G20    30.17F
TORRINGTON     FAIR      53  42  66 VRB5      30.15F
PINE BLUFFS    FAIR      55  36  47 NW5       30.17F

$$




USA.gov is the U.S. government's official web portal to all federal, state and local government web resources and services.